, MO

(GMT )
Kansas City

Weather History for KMKC - January, 2013

Change the Weather History Date:

Friday, January 11, 2013

  Actual Average Record
Temperature  
Mean Temperature 56 °F -  
Max Temperature 61 °F - - ()
Min Temperature 51 °F - - ()
Degree Days  
Heating Degree Days 9    
Growing Degree Days 6 (Base 50)    
Moisture  
Dew Point 46 °F    
Average Humidity 72    
Maximum Humidity 92    
Minimum Humidity 51    
Precipitation  
Precipitation 0.00 in - - ()
Sea Level Pressure  
Sea Level Pressure 29.66 in    
Wind  
Wind Speed 11 mph (SSW)    
Max Wind Speed 21 mph    
Max Gust Speed 31 mph    
Visibility 9 miles    
Events      
Averages and records for this station are not official NWS values.
T = Trace of Precipitation, MM = Missing Value Source: NWS Daily Summary

Daily Weather History Graph

Daily Weather History Graph

Search for Another Location

Airport or City:

Astronomy

Jan. 11, 2013 Rise Set
Actual Time 7:37 AM CST 5:16 PM CST
Civil Twilight 7:07 AM CST 5:45 PM CST
Nautical Twilight 6:34 AM CST 6:18 PM CST
Astronomical Twilight 6:02 AM CST 6:50 PM CST
Moon 7:11 AM CST (1/11) 5:34 PM CST (1/11)
Length of Visible Light 10h 37m
Length of Day
9h 38m
Waning Crescent, 0% of the Moon is Illuminated
Jan 11
Waning Crescent
Jan 11
New
Jan 18
First Quarter
Jan 26
Full
Feb 3
Last Quarter

Hourly Weather History & Observations

Time (CST) Temp. Dew Point Humidity Pressure Visibility Wind Dir Wind Speed Gust Speed Precip Events Conditions
12:54 AM 51.1 °F 48.0 °F 89% 29.74 in 7.0 mi SW 5.8 mph - N/A   Overcast
1:54 AM 51.1 °F 48.9 °F 92% 29.75 in 4.0 mi South 6.9 mph - N/A   Overcast
2:41 AM 51.8 °F 48.2 °F 88% 29.72 in 5.0 mi SSW 6.9 mph - N/A   Overcast
2:54 AM 51.1 °F 48.9 °F 92% 29.73 in 5.0 mi SSW 6.9 mph - N/A   Overcast
3:36 AM 51.8 °F 48.2 °F 88% 29.73 in 6.0 mi SSW 11.5 mph - N/A   Overcast
3:54 AM 52.0 °F 48.9 °F 89% 29.72 in 7.0 mi SSW 10.4 mph - N/A   Overcast
4:05 AM 51.8 °F 48.2 °F 88% 29.72 in 6.0 mi South 9.2 mph - N/A   Overcast
4:54 AM 52.0 °F 46.9 °F 83% 29.71 in 10.0 mi SSW 15.0 mph 24.2 mph N/A   Overcast
5:40 AM 51.8 °F 48.2 °F 88% 29.70 in 10.0 mi South 6.9 mph - N/A   Overcast
5:54 AM 51.1 °F 48.0 °F 89% 29.70 in 10.0 mi South 10.4 mph - N/A   Overcast
6:10 AM 51.8 °F 48.2 °F 88% 29.69 in 10.0 mi South 10.4 mph - N/A   Overcast
6:54 AM 52.0 °F 46.9 °F 83% 29.70 in 10.0 mi South 15.0 mph 20.7 mph N/A   Overcast
7:54 AM 51.1 °F 46.0 °F 83% 29.68 in 10.0 mi South 12.7 mph 19.6 mph N/A   Overcast
8:54 AM 51.1 °F 45.0 °F 80% 29.69 in 10.0 mi SSW 13.8 mph 24.2 mph N/A   Mostly Cloudy
9:10 AM 51.8 °F 44.6 °F 76% 29.69 in 10.0 mi SSW 19.6 mph 27.6 mph N/A   Scattered Clouds
9:54 AM 52.0 °F 44.1 °F 74% 29.67 in 10.0 mi SSW 13.8 mph 21.9 mph N/A   Clear
10:54 AM 55.0 °F 44.1 °F 67% 29.64 in 10.0 mi SSW 16.1 mph 23.0 mph N/A   Clear
11:54 AM 55.4 °F 44.6 °F 67% 29.62 in 10.0 mi SSW 13.8 mph 21.9 mph N/A   Clear
12:54 PM 60.1 °F 44.1 °F 55% 29.59 in 10.0 mi SSW 20.7 mph 31.1 mph N/A   Clear
1:54 PM 60.8 °F 42.8 °F 52% 29.58 in 10.0 mi SSW 16.1 mph 21.9 mph N/A   Clear
2:54 PM 60.1 °F 44.1 °F 55% 29.57 in 10.0 mi SSW 12.7 mph 21.9 mph N/A   Clear
3:54 PM 60.1 °F 44.1 °F 55% 29.57 in 10.0 mi South 11.5 mph - N/A   Clear
4:54 PM 60.1 °F 44.1 °F 55% 29.57 in 10.0 mi South 16.1 mph 25.3 mph N/A   Clear
5:54 PM 60.1 °F 44.1 °F 55% 29.59 in 10.0 mi South 15.0 mph 23.0 mph N/A   Clear
6:54 PM 60.1 °F 44.1 °F 55% 29.60 in 10.0 mi South 19.6 mph 27.6 mph N/A   Clear
7:54 PM 60.1 °F 44.1 °F 55% 29.61 in 10.0 mi South 16.1 mph 24.2 mph N/A   Clear
8:54 PM 60.1 °F 44.1 °F 55% 29.62 in 10.0 mi South 15.0 mph 25.3 mph N/A   Clear
9:54 PM 60.1 °F 45.0 °F 57% 29.64 in 10.0 mi SSW 13.8 mph 23.0 mph N/A   Mostly Cloudy
10:54 PM 61.0 °F 44.1 °F 54% 29.66 in 10.0 mi SW 17.3 mph 25.3 mph N/A   Overcast
11:54 PM 59.0 °F 41.0 °F 51% 29.71 in 10.0 mi WSW 16.1 mph 21.9 mph N/A   Overcast